EW7448 Weather Reports


Display with metric or nautical units.
time (UTC)temp
F
wind
direction
speed
MPH
gust
MPH
rain 1hr
in
rain 24hr
in
rain mn
in
humidity
%
barometer
mb
20200219223026 78 101 0.0 3.0 0.00 0.00 0.00 82 1018.5
20200219221513 78 202 1.0 2.0 0.00 0.00 0.00 81 1018.4
20200219220111 79 127 2.0 7.0 0.00 0.00 0.00 79 1018.2
20200219214523 80 207 2.0 6.0 0.00 0.00 0.00 78 1018.2
20200219213104 80 134 2.0 4.0 0.00 0.00 0.00 78 1018.2
20200219211539 80 51 1.0 5.0 0.00 0.00 0.00 77 1018.2
20200219210031 81 176 2.0 5.0 0.00 0.00 0.00 75 1018.2
20200219204540 81 109 1.0 5.0 0.00 0.00 0.00 75 1018.3
20200219203017 82 142 1.0 5.0 0.00 0.00 0.00 75 1018.2
20200219201507 82 146 1.0 4.0 0.00 0.00 0.00 74 1018.3
20200219200010 82 203 2.0 5.0 0.00 0.00 0.00 74 1018.3
20200219194521 82 117 2.0 6.0 0.00 0.00 0.00 73 1018.3
20200219193006 83 77 1.0 6.0 0.00 0.00 0.00 74 1018.4
20200219191502 83 51 1.0 5.0 0.00 0.00 0.00 74 1018.5
20200219190001 83 139 1.0 5.0 0.00 0.00 0.00 74 1018.5
20200219184651 84 165 1.0 4.0 0.00 0.00 0.00 73 1018.8
20200219183211 85 147 0.0 2.0 0.00 0.00 0.00 67 1019.0
20200219181652 84 238 0.0 3.0 0.00 0.00 0.00 68 1019.2
20200219180117 85 170 0.0 4.0 0.00 0.00 0.00 66 1019.4
20200219174649 85 147 0.0 3.0 0.00 0.00 0.00 67 1019.6
20200219173118 84 233 0.0 4.0 0.00 0.00 0.00 68 1019.8
20200219171553 84 192 0.0 4.0 0.00 0.00 0.00 67 1020.0
20200219170221 84 150 1.0 5.0 0.00 0.00 0.00 69 1020.3
20200219164612 83 177 2.0 5.0 0.00 0.00 0.00 71 1020.5
20200219163111 83 179 2.0 5.0 0.00 0.00 0.00 70 1020.6
20200219161624 82 125 1.0 3.0 0.00 0.00 0.00 74 1020.8
20200219160052 82 225 1.0 4.0 0.00 0.00 0.00 73 1020.9
20200219154631 83 133 1.0 5.0 0.00 0.00 0.00 72 1021.0
20200219153216 83 281 1.0 6.0 0.00 0.00 0.00 74 1021.0
20200219151624 82 259 2.0 5.0 0.00 0.00 0.00 75 1021.1
20200219150108 80 195 3.0 7.0 0.00 0.00 0.00 79 1021.1
20200219144537 79 226 1.0 5.0 0.00 0.00 0.00 85 1021.1
20200219143046 77 240 1.0 4.0 0.00 0.00 0.00 88 1021.0
20200219141532 75 211 0.0 3.0 0.00 0.00 0.00 93 1021.0
20200219140026 74 217 0.0 3.0 0.00 0.00 0.00 96 1020.8
20200219134526 72 243 0.0 1.0 0.00 0.00 0.00 97 1020.7
20200219133041 71 326 0.0 0.0 0.00 0.00 0.00 97 1020.6
20200219131516 70 326 0.0 1.0 0.00 0.00 0.00 96 1020.5
20200219130034 70 333 0.0 1.0 0.00 0.00 0.00 96 1020.4
20200219124538 70 334 0.0 1.0 0.00 0.00 0.00 97 1020.3
20200219123028 69 334 0.0 1.0 0.00 0.00 0.00 96 1020.1
20200219121510 69 334 0.0 0.0 0.00 0.00 0.00 96 1020.0
20200219120011 68 334 0.0 2.0 0.00 0.00 0.00 96 1019.8
20200219114506 68 180 0.0 0.0 0.00 0.00 0.00 96 1019.7
20200219113003 68 167 0.0 0.0 0.00 0.00 0.00 97 1019.6
20200219111628 67 167 0.0 0.0 0.00 0.00 0.00 96 1019.3
20200219111500 67 167 0.0 0.0 0.00 0.00 0.00 96 1019.3
20200219110138 66 167 0.0 0.0 0.00 0.00 0.00 96 1019.1
20200219104715 66 167 0.0 0.0 0.00 0.00 0.00 96 1019.1
20200219103140 66 167 0.0 0.0 0.00 0.00 0.00 96 1019.0
20200219101647 66 167 0.0 0.0 0.00 0.00 0.00 96 1018.9
20200219100239 66 167 0.0 0.0 0.00 0.00 0.00 95 1018.8
20200219094622 66 167 0.0 0.0 0.00 0.00 0.00 96 1018.7
20200219093152 66 167 0.0 0.0 0.00 0.00 0.00 95 1018.8
20200219091726 67 167 0.0 0.0 0.00 0.00 0.00 95 1018.8
20200219090132 67 167 0.0 0.0 0.00 0.00 0.00 96 1018.7
20200219084612 67 167 0.0 0.0 0.00 0.00 0.00 95 1018.6
20200219083204 68 167 0.0 0.0 0.00 0.00 0.00 95 1018.5
20200219081555 68 167 0.0 0.0 0.00 0.00 0.00 95 1018.6
20200219080107 68 167 0.0 0.0 0.00 0.00 0.00 95 1018.5
20200219074657 68 167 0.0 0.0 0.00 0.00 0.00 95 1018.6
20200219073155 68 167 0.0 0.0 0.00 0.00 0.00 95 1018.6
20200219071616 68 167 0.0 0.0 0.00 0.00 0.00 95 1018.6
20200219070148 69 167 0.0 0.0 0.00 0.00 0.00 95 1018.7
20200219064557 69 167 0.0 0.0 0.00 0.00 0.00 95 1018.8
20200219063044 69 167 0.0 0.0 0.00 0.00 0.00 95 1018.8
20200219061617 69 167 0.0 0.0 0.00 0.00 0.00 95 1018.8
20200219060214 69 167 0.0 0.0 0.00 0.00 0.00 95 1018.8
20200219054636 70 167 0.0 0.0 0.00 0.00 0.00 95 1018.8
20200219053132 70 167 0.0 0.0 0.00 0.00 0.00 94 1018.8
20200219051555 70 167 0.0 0.0 0.00 0.00 0.00 94 1019.1
20200219050126 71 167 0.0 1.0 0.00 0.00 0.00 94 1019.0
20200219044555 71 238 0.0 0.0 0.00 0.00 0.00 94 1019.1
20200219043044 71 238 0.0 0.0 0.00 0.00 0.00 94 1019.3
20200219041531 71 238 0.0 1.0 0.00 0.00 0.00 94 1019.3
20200219040044 71 238 0.0 1.0 0.00 0.00 0.00 93 1019.3
20200219034628 71 238 0.0 1.0 0.00 0.00 0.00 93 1019.3
20200219033035 72 160 0.0 1.0 0.00 0.00 0.00 93 1019.2
20200219031617 72 158 0.0 1.0 0.00 0.00 0.00 93 1019.3
20200219030025 72 147 0.0 1.0 0.00 0.00 0.00 92 1019.2
20200219024527 72 136 0.0 1.0 0.00 0.00 0.00 92 1019.1
20200219023025 73 137 0.0 1.0 0.00 0.00 0.00 91 1019.1
20200219021557 73 151 0.0 1.0 0.00 0.00 0.00 91 1019.0
20200219020047 73 151 0.0 1.0 0.00 0.00 0.00 90 1018.9
20200219014551 73 143 1.0 2.0 0.00 0.00 0.00 90 1018.9
20200219013025 73 160 0.0 4.0 0.00 0.00 0.00 90 1018.6
20200219011526 74 149 0.0 2.0 0.00 0.00 0.00 89 1018.7
20200219010050 74 149 0.0 3.0 0.00 0.00 0.00 89 1018.7
20200219004522 74 171 0.0 5.0 0.00 0.00 0.00 88 1018.5
20200219003020 74 172 1.0 4.0 0.00 0.00 0.00 88 1018.5
20200219001551 75 191 1.0 5.0 0.00 0.00 0.00 87 1018.3
20200219000050 75 135 1.0 5.0 0.00 0.00 0.00 86 1018.3
20200218234536 75 205 1.0 5.0 0.00 0.00 0.00 85 1018.2
20200218233026 76 160 1.0 5.0 0.00 0.00 0.00 84 1018.2
20200218231528 76 114 2.0 6.0 0.00 0.00 0.00 81 1018.1
20200218230026 78 162 3.0 9.0 0.00 0.00 0.00 78 1018.0
20200218224536 79 125 3.0 8.0 0.00 0.00 0.00 75 1017.9